Other Surface Observations
Issued by NWS

Home | Current Version | Previous Version | Text Only | Print | Product List | Glossary On
Versions: 1 2 3 4 5 6 7 8 9 10 11 12 13 14 15 16 17 18 19 20 21 22 23 24 25 26 27 28 29 30 31 32 33 34 35 36 37 38 39 40 41 42 43 44 45 46 47 48 49 50
931
SXUS52 KTAE 232319
OSOTAE
OSOTAE
North Florida/South Alabama/Southwest Georgia Weather Roundup
National Weather Service Tallahassee Florida
700 PM EDT SAT SEP 23 2017

Note: "fair" indicates few or no clouds below 12,000 feet with no
significant weather and/or obstructions to visibility.

!FLZ017-115-028-034-025-240000
...North Florida...

CITY           SKY/WX    TMP DP  RH WIND       PRES   REMARKS
TALLAHASSEE    PTCLDY    87  67  51 NE6       29.90S HX  90
APALACHICOLA   PTCLDY    83  73  72 SE5       29.89S
PERRY          PTCLDY    77  74  91 NE5       29.92S
CROSS CITY     PTCLDY    82  72  69 E3        29.94R
JACKSONVILLE   MOCLDY    80  73  79 NE12      29.93S
$$

!FLZ112-006-005-002-011-240000
...Florida Panhandle...

CITY           SKY/WX    TMP DP  RH WIND       PRES   REMARKS
MARIANNA       CLEAR     86  68  54 N8        29.91S
BONIFAY        NOT AVBL
PANAMA CITY NW FAIR      85  68  56 N7        29.90R
TYNDALL AFB    CLEAR     87  66  49 NE6       29.90R
TYND DRONE APT FAIR      85  65  50 NE6       29.89S
DE FUNIAK SPR  FAIR      85  66  53 E7        29.93S
EGLIN AFB      PTCLDY    87  66  48 NE5       29.90S
DESTIN         CLEAR     89  66  46 E7        29.90S HX  91
HURLBURT       PTCLDY    85  64  48 E5        29.89S
CRESTVIEW      CLEAR     84  68  58 NE3       29.94R
PENSACOLA      PTCLDY    87  69  54 SE3       29.91R HX  91
$$

!ALZ063-066-240000
...South Alabama...

CITY           SKY/WX    TMP DP  RH WIND       PRES   REMARKS
DOTHAN         CLOUDY    79  70  74 NW5       29.98S
OZARK CAIRNS   CLOUDY    75  71  86 SE5       29.95R
FT RUCKER HELI CLOUDY    79  72  78 NW3       29.94R
RUCKER HELI 3  FAIR      76  73  91 NW5       29.95R
RUCKER HELI 2  FAIR      76  72  85 S3        29.94R
FLORALA APT    NOT AVBL
ANDALUSIA      LGT RAIN  84  68  58 E10       29.95R
TROY           PTCLDY    82  71  69 E3        29.96R
EUFALA         FAIR      84  68  58 NE6       29.94R
MOBILE         MOCLDY    77  69  76 SE3       29.94S
$$

!GAZ120>161-240000
...Southwest and South Central Georgia...

CITY           SKY/WX    TMP DP  RH WIND       PRES   REMARKS
THOMASVILLE    MOCLDY    86  66  51 E7        29.95R
BAINBRIDGE     CLEAR     88  70  55 NE10      29.92S HX  92
MOODY AFB      LGT RAIN  75  72  88 N6        29.95R
VALDOSTA       LGT RAIN  76  70  82 N7        29.95R
MOULTRIE       PTCLDY    84  66  54 E3        29.95R
BLAKELY        CLEAR     81  70  69 CALM      29.94S
ALBANY         CLEAR     86  64  47 E8        29.96R
TIFTON         FAIR      77  69  76 E3        29.97R
FITZGERALD     FAIR      79  76  90 CALM      29.99S
CORDELE        FAIR      89  66  47 E6        29.98R HX  91
AMERICUS       FAIR      82  63  51 E5        29.98S
HOMERVILLE     FAIR      73  72  94 CALM      29.97R
$$

!GMZ750-755-770-775-240000
...Coastal and Buoy Obs...

STATION/POSITION TIME  TEMP    WIND        PRES    VSBY  WAVE
                       AIR SEA DIR/SP/G                  HT/PER
                 (UTC) (F)     (DEG/KT/KT) (MB)    (MI)  (FT/S)
KEATON BEACH     2300   82      50/  5/  7 1012.1R
CEDAR KEY        2300   81      60/ 11/ 15 1012.4F
C TOWER          2300   82      60/  9/ 10 1012.7F
APALACHICOLA BUO 2250   82 82   30/ 14/ 16 1011.3S         3/ 4
PANAMA CITY BUOY 2250   81 83   60/ 14/ 17 1011.5F         3/ 6
MOBILE BUOY      2300   82 84   80/ 14/ 17 1012.5
ORANGE BCH AL BU 2250   82 84  120/  8/ 10 1012.4S         2/ 5
$$




USA.gov is the U.S. government's official web portal to all federal, state and local government web resources and services.